User: anonymous
Location: Deer Lake
(49.1830°N, 57.4330°W)
Time: 07:36:21
(UTC-02:-30)
Language:

NOSS 3-1 (C) - Orbit

View from above orbital plane
View from above orbital plane
View from above satellite
View from above satellite

Ground track
Ground track

The orbit data is extracted from the following two-line orbital elements,

1 26907U 01040C   14106.91774097 0.00000000  00000-0  00000-0 0    08
2 26907  63.4213 103.5806 0270000 358.2919   1.7081 13.41193978    07
Epoch (UTC): 16 April 2014 22:01:32
Eccentricity: 0.0270000
inclination: 63.4213°
perigee height: 903 km
apogee height: 1307 km
right ascension of ascending node: 103.5806°
argument of perigee: 358.2919°
revolutions per day: 13.41193978
mean anomaly at epoch: 1.7081°
orbit number at epoch: 0

The dashed part of the orbit path shows where the satellite is in the earth's shadow,  

DLR